Regional Weather Roundup
Issued by NWS Kansas City/Pleasant Hill, MO

Home | Current Version | Previous Version | Graphics & Text | Print | Product List | Glossary Off
Versions: 1 2 3 4 5 6 7 8 9 10 11 12 13 14 15 16 17 18 19 20 21 22 23 24 25 26 27 28 29 30 31 32 33 34 35 36 37 38 39 40 41 42 43 44 45 46 47 48 49 50

000
ASUS43 KEAX 300004
RWREAX

WEATHER ROUNDUP FOR EASTERN KANSAS AND NORTHWEST MISSOURI
NATIONAL WEATHER SERVICE KANSAS CITY/PLEASANT HILL MO
700 PM CDT WED OCT 29 2014

KSZ040-057-103>105-MOZ028-029-037-043-300100-
...KANSAS CITY METROPOLITAN AREA...

CITY           SKY/WX    TMP DP  RH WIND       PRES   REMARKS
K.C. INTL      CLEAR     54  32  43 S3        30.13S
6HR MIN TEMP:  52; 6HR MAX TEMP:  61;

K.C. DOWNTOWN  CLEAR     57  30  35 CALM      30.13S
6HR MIN TEMP:  57; 6HR MAX TEMP:  63;

LEES SUMMIT    CLEAR     57  30  35 SE3       30.14S
6HR MIN TEMP:  56; 6HR MAX TEMP:  62;

OLATHE - IXD   CLEAR     56  33  42 SE5       30.13F
6HR MIN TEMP:  55; 6HR MAX TEMP:  61;

OLATHE - OJC   CLEAR     55  34  45 CALM      30.13S
6HR MIN TEMP:  53; 6HR MAX TEMP:  62;

LAWRENCE       CLEAR     52  35  52 E5        30.12F

$$

MOZ001>008-011>017-020>025-030>033-038>040-044>046-053-054-300100-
...NORTHERN AND CENTRAL MISSOURI...

CITY           SKY/WX    TMP DP  RH WIND       PRES   REMARKS
ST. JOSEPH     CLEAR     51  35  54 SE3       30.13S
6HR MIN TEMP:  51; 6HR MAX TEMP:  61;

MOSBY          CLEAR     52  34  50 CALM      30.13F
WHITEMAN AFB   CLEAR     51  34  51 E3        30.14F
6HR MIN TEMP:  51; 6HR MAX TEMP:  60;

CLINTON        CLEAR     54  36  50 CALM      30.15F HAZE
SEDALIA        CLEAR     55  31  39 CALM      30.16S
6HR MIN TEMP:  55; 6HR MAX TEMP:  61;

WARSAW         NOT AVBL
MARSHALL       CLEAR     54  34  47 CALM      30.16S
CHILLICOTHE      N/A     48  37  65 CALM      30.16R
6HR MIN TEMP:  48; 6HR MAX TEMP:  59;

MOBERLY        CLEAR     50  32  50 CALM      30.16S
KIRKSVILLE     CLEAR     46  34  62 CALM      30.15S
6HR MIN TEMP:  46; 6HR MAX TEMP:  56;


$$

MOZ041-047>049-056>058-063>065-088>090-097-300100-
...EASTERN AND SOUTHERN MISSOURI...

CITY           SKY/WX    TMP DP  RH WIND       PRES   REMARKS
ST. LOUIS INTL CLEAR     53  36  52 NW3       30.16S
6HR MIN TEMP:  53; 6HR MAX TEMP:  59;

SPIRIT OF STL  CLEAR     47  38  71 CALM      30.15S
COLUMBIA       CLEAR     51  34  52 CALM      30.16R
JEFFERSON CITY CLEAR     51  33  50 CALM      30.16R
MEXICO         CLEAR     50  39  66 CALM      30.15S
ROLLA          CLEAR     46  32  58 CALM      30.14S
LEBANON        CLEAR     54  27  35 NW3       30.16S
OSAGE BEACH    CLEAR     52  30  43 N3        30.15F
SPRINGFIELD    CLEAR     57  36  45 CALM      30.15S
BRANSON        CLEAR     54  39  58 CALM      30.17S
NEVADA         CLEAR     54  39  58 SE5       30.16S
JOPLIN         CLEAR     54  40  59 VRB5      30.15S
WEST PLAINS    CLEAR     53  33  46 W3        30.16R

$$

IAZ060-094-KSZ022-034>040-054-083-096-NEZ052-066-093-300100-
...KANSAS...SOUTHEAST NEBRASKA AND IOWA...

CITY           SKY/WX    TMP DP  RH WIND       PRES   REMARKS
TOPEKA         CLEAR     55  36  48 E7        30.11F
6HR MIN TEMP:  55; 6HR MAX TEMP:  64;

MANHATTAN      CLEAR     58  36  43 SE5       30.07S
EMPORIA        CLEAR     56  37  49 SE8       30.10S
CHANUTE        CLEAR     58  40  51 SE6       30.12F
WICHITA        CLEAR     60  30  32 S6        30.09S
OMAHA          PTCLDY    50  32  50 SE9       30.09F
LINCOLN        CLEAR     50  32  50 S7        30.08F
FALLS CITY     CLEAR     51  32  48 SE5       30.10F
LAMONI         CLEAR     50  33  52 CALM      30.13S
DES MOINES     CLEAR     51  33  50 S3        30.12S

$$




USA.gov is the U.S. government's official web portal to all federal, state and local government web resources and services.